MERAH PUTIH 2

Last updated on Thu Nov 21 2024 00:02:45 GMT+0000 (Coordinated Universal Time)

1 58995U 24035A 24325.56095140 -.00000357 00000+0 00000+0 0 9990 2 58995 0.0169 318.5136 0001729 285.4556 131.0028 1.00270252 2832
UTC large
Height (km)
Speed (km/s)
/
Latitude / Longitude
Inclination (degrees)
Orbital Period (minutes)
Azimuth
Elevation
Range (km)
Doppler Factor

Next 0 passes for location: London (51.5072 / 0.1276)

Sorry there are no passes over London.